• Join FlightAware (Why Join?)
  • Login
  • US Flag 
03:25PM EST


 

Airport Tracker/Info


-or-


 

Live Flight TrackerFlight Track Log ✈ SWA3228 ✈ 02-May-2013 ✈ KBHM - KMDW

Flight Track Log - Related Links

Times and Time Zones

All times are in EDT time to prevent confusion due to time zone crossing. See the SWA3228 flight status page for this flight to view local times or setup timezone preferences in your user account.

Time Position Orientation Groundspeed Altitude Reporting Facility
EDT Latitude Longitude Course Direction KTS MPH feet Rate Location/Type
10:27AM 33.5706 -86.7439 49° Northeast 140 161 1,700  Level Atlanta Center
10:28AM 33.5983 -86.7050 49° Northeast 190 219 3,300 2,000 Climbing Atlanta Center
10:29AM 33.6639 -86.6744 21° North 296 341 5,700 2,976 Climbing Atlanta Center
10:30AM 33.7394 -86.6517 14° North 278 320 9,500 3,550 Climbing Atlanta Center
10:31AM 33.8214 -86.6242 16° North 278 320 12,800 2,940 Climbing Atlanta Center
10:33AM 33.9650 -86.5806 14° North 324 373 16,900 2,625 Climbing Memphis Center
10:34AM 34.0506 -86.5483 17° North 350 403 19,100 2,442 Climbing Atlanta Center
10:35AM 34.1578 -86.5064 18° North 370 426 21,500 1,950 Climbing Atlanta Center
10:36AM 34.2650 -86.4669 17° North 387 445 23,000 750 Climbing Atlanta Center
10:37AM 34.3764 -86.4297 15° North 401 461 23,000 50 Level Atlanta Center
10:38AM 34.4856 -86.3875 18° North 401 461 23,100 1,250 Climbing Atlanta Center
10:39AM 34.6131 -86.3783 North 416 479 25,500 2,200 Climbing Atlanta Center
10:40AM 34.7297 -86.3994 352° North 416 479 27,500 1,900 Climbing Atlanta Center
10:41AM 34.8500 -86.4256 350° North 423 487 29,300 1,800 Climbing Atlanta Center
10:42AM 34.9747 -86.4494 351° North 434 499 31,100 1,780 Climbing Atlanta Center
10:42AM 35.0253 -86.4597 351° North 451 519 32,000 2,110 Climbing Memphis Center
10:43AM 35.1556 -86.4892 350° North 451 519 34,300 2,000 Climbing Memphis Center
10:44AM 35.2731 -86.5142 350° North 440 506 36,000 850 Climbing Memphis Center
10:45AM 35.3928 -86.5367 351° North 426 490 36,000  Level Memphis Center
10:46AM 35.5117 -86.5389 359° North 431 496 36,000  Level Memphis Center
10:47AM 35.6169 -86.5033 15° North 424 488 36,000  Level Memphis Center
10:48AM 35.7367 -86.4594 17° North 429 494 36,000 500 Level Memphis Center
10:49AM 35.8561 -86.4153 17° North 435 501 37,000 500 Climbing Memphis Center
10:50AM 35.9736 -86.3739 16° North 435 501 37,000  Level Memphis Center
10:51AM 36.0908 -86.3269 18° North 435 501 37,000  Level Memphis Center
10:52AM 36.2106 -86.2825 17° North 435 501 37,000  Level Memphis Center
10:53AM 36.3278 -86.2406 16° North 430 495 37,000  Level Memphis Center
10:54AM 36.4475 -86.1983 16° North 430 495 37,000  Level Memphis Center
10:55AM 36.5669 -86.1561 16° North 437 503 37,000  Level Memphis Center
10:57AM 36.7850 -86.0761 16° North 445 512 37,000  Level Indianapolis Center
10:58AM 36.9106 -86.0731 North 447 514 37,000  Level Indianapolis Center
10:59AM 37.0344 -86.0714 North 444 511 37,000  Level Indianapolis Center
11:00AM 37.1597 -86.0711 360° North 445 512 37,000  Level Indianapolis Center
11:01AM 37.3064 -86.0683 North 447 514 37,000  Level Indianapolis Center
11:02AM 37.4347 -86.0678 360° North 454 522 37,000  Level Indianapolis Center
11:03AM 37.5544 -86.0697 359° North 459 528 37,000  Level Indianapolis Center
11:04AM 37.6847 -86.0706 360° North 466 536 37,000  Level Indianapolis Center
11:05AM 37.8156 -86.0692 360° North 463 533 37,000  Level Indianapolis Center
11:06AM 37.9711 -86.0689 360° North 469 540 37,000  Level Indianapolis Center
11:07AM 38.1014 -86.0683 360° North 468 539 37,000 -145 Level Indianapolis Center
11:08AM 38.2300 -86.0678 360° North 463 533 36,700 -634 Descending Indianapolis Center
11:09AM 38.3608 -86.0678 360° North 467 537 35,700 -829 Descending Indianapolis Center
11:10AM 38.4917 -86.0672 360° North 470 541 35,000 -339 Descending Indianapolis Center
11:11AM 38.6233 -86.0658 360° North 473 544 35,000 -581 Level Indianapolis Center
11:12AM 38.7817 -86.0656 360° North 473 544 33,800 -1,258 Descending Indianapolis Center
11:13AM 38.9067 -86.0644 360° North 472 543 32,400 -1,355 Descending Indianapolis Center
11:14AM 39.0403 -86.0642 360° North 479 551 31,000 -1,403 Descending Indianapolis Center
11:15AM 39.1714 -86.0633 360° North 475 547 29,500 -1,452 Descending Indianapolis Center
11:16AM 39.3000 -86.0639 360° North 466 536 28,000 -823 Descending Indianapolis Center
11:18AM 39.4492 -86.0628 360° North 453 521 27,800 -585 Descending Indianapolis Center
11:19AM 39.5756 -86.0617 360° North 458 527 26,800 -976 Descending Indianapolis Center
11:20AM 39.7019 -86.0608 360° North 462 532 25,800 -968 Descending Indianapolis Center
11:21AM 39.8281 -86.0606 360° North 464 534 24,800 -871 Descending Indianapolis Center
11:22AM 39.9792 -86.0606 360° North 460 529 24,000 -387 Descending Indianapolis Center
11:23AM 40.1039 -86.0775 354° North 458 527 24,000  Level Indianapolis Center
11:24AM 40.2250 -86.1228 344° North 458 527 24,000 -488 Level Indianapolis Center
11:25AM 40.3442 -86.1661 345° North 451 519 23,000 -484 Descending Indianapolis Center
11:26AM 40.4594 -86.2094 344° North 439 505 23,000 -726 Level Indianapolis Center
11:27AM 40.5986 -86.2603 345° North 436 502 21,500 -2,177 Descending Chicago Center
11:28AM 40.7158 -86.3058 344° North 432 497 18,500 -2,710 Descending Chicago Center
11:29AM 40.8297 -86.3508 343° North 429 494 15,900 -2,516 Descending Chicago Center
11:30AM 40.9392 -86.3928 344° North 415 478 13,300 -2,371 Descending Chicago Center
11:31AM 41.0431 -86.4372 342° North 399 459 11,000 -1,268 Descending Chicago Center
11:32AM 41.1147 -86.5369 314° West 377 434 10,700 -537 Descending Chicago Center
11:33AM 41.1828 -86.6442 310° West 380 437 9,900 -387 Descending Chicago Center
11:34AM 41.2628 -86.7681 311° West 377 434 9,900  Level Chicago Center
11:35AM 41.3306 -86.8728 311° West 375 432 9,900 -242 Level Chicago Center
11:36AM 41.3886 -86.9608 311° West 325 374 9,400 -1,016 Descending Chicago Center
11:37AM 41.4422 -87.0456 310° West 302 348 7,800 -1,554 Descending Chicago Center
11:38AM 41.5000 -87.1333 311° West 298 343 6,500 -1,314 Descending Chicago TRACON
11:39AM 41.5167 -87.2167 285° West 283 326 5,500 -1,240 Descending Chicago TRACON
11:40AM 41.5333 -87.3167 283° West 273 314 4,000 -750 Descending Chicago TRACON
11:41AM 41.5333 -87.4000 270° West 269 310 4,000  Level Chicago TRACON
11:41AM 41.5442 -87.4417 289° West 271 312 4,000  Level Chicago Center
11:42AM 41.5553 -87.5389 279° West 269 310 4,000  Level Chicago Center
11:43AM 41.5656 -87.6367 278° West 269 310 4,000 -195 Level Chicago Center
11:44AM 41.6044 -87.7133 304° West 258 297 3,600 -488 Descending Chicago Center
11:45AM 41.6497 -87.7908 308° West 236 272 3,000 -581 Descending Chicago Center
11:46AM 41.6922 -87.8264 328° Northwest 202 232 2,400 -484 Descending Chicago Center
11:47AM 41.7297 -87.8225 North 172 198 2,000 -484 Descending Chicago Center
11:48AM 41.7547 -87.7908 43° Northeast 141 162 1,400 -484 Descending Chicago Center
11:49AM 41.7825 -87.7553 44° Northeast 132 152 1,000 -387 Descending Chicago Center
11:51AM 41.7833 -87.7500 37° Northeast  Level FlightAware Approximate